DL7AND-2 Weather Reports


Display with metric or nautical units.
time (UTC)temp
F
wind
direction
speed
MPH
gust
MPH
rain 1hr
in
rain 24hr
in
rain mn
in
humidity
%
barometer
mb
20260507162212 53 0.0 0.0 0.00 0.00 0.00 70 1015.5
20260507161147 53 0.0 0.0 0.00 0.00 0.00 70 1015.5
20260507160232 53 0.0 0.0 0.00 0.00 0.00 71 1015.5
20260507155208 53 0.0 0.0 0.00 0.00 0.00 70 1015.6
20260507154232 53 0.0 0.0 0.00 0.00 0.00 70 1015.4
20260507153148 53 0.0 0.0 0.00 0.00 0.00 70 1015.2
20260507152232 53 0.0 0.0 0.00 0.00 0.00 70 1015.1
20260507151208 53 90 0.0 2.0 0.00 0.00 0.00 70 1015.1
20260507150232 53 90 1.0 2.0 0.00 0.00 0.00 70 1014.9
20260507145148 53 90 1.0 3.0 0.00 0.00 0.00 70 1015.1
20260507144233 53 90 0.0 2.0 0.00 0.00 0.00 70 1015.1
20260507143228 53 90 0.0 1.0 0.00 0.01 0.00 70 1015.0
20260507142212 52 0.0 0.0 0.00 0.01 0.00 70 1014.9
20260507141228 52 90 1.0 2.0 0.00 0.01 0.00 69 1014.9
20260507140212 52 90 1.0 2.0 0.00 0.01 0.00 68 1014.8
20260507135147 53 90 3.0 4.0 0.00 0.01 0.00 67 1014.9
20260507134252 53 90 3.0 6.0 0.00 0.01 0.00 67 1014.8
20260507133248 53 90 1.0 3.0 0.00 0.01 0.00 67 1014.7
20260507132312 53 90 1.0 2.0 0.00 0.01 0.00 69 1014.8
20260507131208 53 90 1.0 2.0 0.00 0.01 0.00 69 1014.6
20260507130212 53 90 2.0 3.0 0.00 0.01 0.00 70 1014.6
20260507125248 52 90 2.0 3.0 0.00 0.01 0.00 70 1014.6
20260507124232 52 90 4.0 6.0 0.00 0.01 0.00 69 1014.7
20260507123208 52 90 2.0 3.0 0.00 0.01 0.00 70 1014.8
20260507122232 52 45 3.0 5.0 0.00 0.01 0.00 70 1014.9
20260507121207 51 67 3.0 4.0 0.00 0.01 0.00 70 1014.6
20260507120232 51 90 0.0 2.0 0.00 0.01 0.00 70 1014.7
20260507115308 50 45 3.0 4.0 0.00 0.01 0.00 71 1014.6
20260507114332 50 45 3.0 5.0 0.00 0.01 0.00 71 1014.5
20260507113147 49 45 3.0 5.0 0.00 0.01 0.00 71 1014.3
20260507112212 49 45 5.0 7.0 0.00 0.01 0.00 72 1014.3
20260507111148 49 67 1.0 3.0 0.00 0.01 0.00 72 1014.5
20260507110212 48 67 2.0 3.0 0.00 0.01 0.00 72 1014.3
20260507105227 48 90 5.0 7.0 0.00 0.01 0.00 73 1014.3
20260507104345 48 90 3.0 6.0 0.00 0.01 0.00 74 1014.3
20260507103148 48 90 5.0 6.0 0.00 0.01 0.00 75 1014.3
20260507102233 48 90 3.0 5.0 0.00 0.01 0.00 75 1014.0
20260507101148 47 90 5.0 6.0 0.00 0.01 0.00 76 1014.0
20260507100233 48 90 4.0 6.0 0.00 0.01 0.00 76 1014.0
20260507095229 48 90 5.0 9.0 0.00 0.01 0.00 78 1013.7
20260507094212 48 90 3.0 5.0 0.00 0.01 0.00 78 1013.6
20260507093209 48 90 2.0 4.0 0.00 0.01 0.00 76 1013.6
20260507092353 48 90 3.0 5.0 0.00 0.01 0.00 75 1013.3
20260507091208 48 90 2.0 3.0 0.00 0.02 0.00 73 1013.2
20260507090253 48 90 0.0 2.0 0.00 0.02 0.00 73 1013.1
20260507085148 48 90 3.0 6.0 0.00 0.03 0.00 74 1013.1
20260507084233 48 90 1.0 2.0 0.00 0.03 0.00 74 1012.8
20260507083148 48 90 3.0 4.0 0.00 0.04 0.00 74 1012.8
20260507082253 48 90 3.0 4.0 0.00 0.05 0.00 75 1012.9
20260507080212 47 90 3.0 4.0 0.00 0.08 0.00 75 1012.6
20260507075209 47 90 5.0 6.0 0.00 0.09 0.00 74 1012.5
20260507074313 47 90 6.0 9.0 0.00 0.11 0.00 74 1012.3
20260507073309 47 90 5.0 8.0 0.00 0.12 0.00 74 1012.2
20260507072313 47 90 2.0 4.0 0.00 0.15 0.00 75 1012.0
20260507071148 47 90 2.0 3.0 0.00 0.18 0.00 74 1012.0
20260507070212 47 90 5.0 6.0 0.00 0.22 0.00 75 1011.8
20260507065148 47 90 5.0 9.0 0.00 0.25 0.00 75 1012.0
20260507064232 47 45 3.0 4.0 0.00 0.29 0.00 76 1011.7
20260507063148 46 90 3.0 5.0 0.00 0.34 0.00 77 1011.9
20260507062252 46 45 2.0 3.0 0.00 0.37 0.00 78 1011.7
20260507061148 46 45 3.0 6.0 0.00 0.40 0.00 79 1011.5
20260507060212 46 45 2.0 3.0 0.00 0.41 0.00 79 1011.3
20260507055309 46 45 3.0 6.0 0.00 0.42 0.00 80 1011.3
20260507054212 46 45 0.0 1.0 0.00 0.42 0.00 80 1011.2
20260507053229 46 45 3.0 6.0 0.00 0.43 0.00 80 1011.2
20260507052232 46 67 3.0 5.0 0.00 0.43 0.00 80 1011.0
20260507051229 46 45 3.0 3.0 0.00 0.43 0.00 80 1011.1
20260507050212 46 45 3.0 3.0 0.00 0.44 0.00 80 1010.7
20260507045148 46 45 2.0 3.0 0.00 0.44 0.00 80 1010.8
20260507044212 46 45 4.0 6.0 0.00 0.44 0.00 81 1010.4
20260507043148 46 45 3.0 3.0 0.00 0.46 0.00 81 1010.4
20260507042212 46 45 1.0 3.0 0.00 0.47 0.00 81 1010.5
20260507041148 46 45 3.0 6.0 0.00 0.48 0.00 81 1010.3
20260507040300 46 67 0.0 1.0 0.00 0.49 0.00 81 1010.1
20260507035148 45 67 3.0 5.0 0.00 0.50 0.00 81 1010.0
20260507034212 45 90 2.0 3.0 0.00 0.50 0.00 81 1009.9
20260507033148 45 90 2.0 4.0 0.00 0.51 0.00 81 1009.9
20260507032212 45 90 1.0 2.0 0.00 0.53 0.00 81 1009.9
20260507031228 45 90 3.0 7.0 0.00 0.55 0.00 81 1009.8
20260507030212 45 90 3.0 6.0 0.00 0.57 0.00 81 1009.6
20260507025148 45 90 3.0 3.0 0.00 0.59 0.00 81 1009.6
20260507024212 45 45 1.0 2.0 0.00 0.61 0.00 81 1009.7
20260507023148 45 45 2.0 3.0 0.00 0.64 0.00 80 1009.7
20260507021148 45 45 3.0 3.0 0.00 0.70 0.00 80 1009.5
20260507020232 46 45 3.0 5.0 0.00 0.73 0.00 80 1009.2
20260507015148 46 45 8.0 9.0 0.00 0.75 0.00 81 1009.4
20260507014233 46 45 4.0 6.0 0.00 0.76 0.00 80 1009.5
20260507013229 46 45 2.0 4.0 0.00 0.79 0.00 81 1009.4
20260507012232 46 45 5.0 6.0 0.00 0.80 0.00 81 1009.4
20260507011209 46 45 0.0 1.0 0.00 0.81 0.00 81 1009.3
20260507010212 46 45 2.0 3.0 0.00 0.82 0.00 81 1008.9
20260507005228 45 45 1.0 3.0 0.00 0.83 0.00 81 1009.1
20260507004213 45 45 1.0 3.0 0.00 0.83 0.00 81 1008.9
20260507003148 45 45 3.0 5.0 0.00 0.85 0.00 80 1008.9
20260507001148 46 45 5.0 6.0 0.00 0.86 0.00 81 1008.8
20260507000212 46 45 3.0 5.0 0.00 0.86 0.00 81 1008.9
20260506235148 46 45 3.0 5.0 0.00 0.86 0.00 81 1008.7
20260506234212 47 45 3.0 6.0 0.00 0.86 0.00 81 1008.9
20260506233208 47 45 3.0 4.0 0.00 0.87 0.00 81 1008.7
20260506232300 48 67 3.0 6.0 0.00 0.87 0.00 81 1008.9
20260506231148 48 45 5.0 7.0 0.00 0.87 0.00 82 1008.7
20260506230212 49 45 3.0 4.0 0.00 0.87 0.00 82 1008.6
20260506225148 49 45 6.0 9.0 0.00 0.87 0.00 82 1008.3
20260506224233 49 45 3.0 4.0 0.00 0.87 0.00 82 1008.0
20260506223148 50 45 9.0 11.0 0.00 0.87 0.00 83 1008.0
20260506222232 50 45 2.0 5.0 0.00 0.87 0.00 83 1008.0
20260506221249 50 45 3.0 6.0 0.00 0.87 0.00 83 1008.0
20260506220313 50 45 4.0 6.0 0.00 0.87 0.87 84 1008.1
20260506215148 51 45 3.0 5.0 0.00 0.87 0.87 84 1008.1
20260506214213 51 45 3.0 5.0 0.00 0.87 0.87 85 1008.0
20260506213149 51 45 1.0 2.0 0.00 0.87 0.87 84 1007.9
20260506212300 51 45 2.0 3.0 0.00 0.87 0.87 84 1007.6
20260506211148 51 45 4.0 6.0 0.00 0.87 0.87 85 1007.5
20260506210232 51 45 1.0 2.0 0.00 0.87 0.87 86 1007.6
20260506205148 51 45 5.0 7.0 0.00 0.87 0.87 87 1007.4
20260506204232 51 45 3.0 4.0 0.00 0.87 0.87 88 1007.4
20260506203148 51 45 2.0 3.0 0.00 0.87 0.87 87 1007.5
20260506202253 51 45 2.0 3.0 0.00 0.87 0.87 87 1007.6
20260506201229 51 45 1.0 3.0 0.00 0.87 0.87 87 1007.5
20260506200313 51 45 1.0 3.0 0.00 0.87 0.87 86 1007.3
20260506195209 51 0.0 1.0 0.00 0.87 0.87 86 1007.2
20260506194253 51 45 3.0 5.0 0.00 0.87 0.87 86 1007.1
20260506192212 51 45 2.0 3.0 0.00 0.87 0.87 85 1007.1
20260506191209 51 45 3.0 5.0 0.00 0.87 0.87 85 1007.2
20260506190253 51 45 0.0 1.0 0.00 0.87 0.87 84 1006.8
20260506185148 51 45 2.0 3.0 0.00 0.87 0.87 84 1006.7
20260506184212 51 45 3.0 5.0 0.00 0.87 0.87 83 1006.4
20260506183148 52 45 1.0 3.0 0.00 0.87 0.87 83 1006.5
20260506182232 52 45 2.0 3.0 0.00 0.87 0.87 84 1006.4
20260506181249 53 45 4.0 6.0 0.00 0.87 0.87 84 1006.6
20260506180212 53 45 2.0 3.0 0.00 0.87 0.87 84 1006.6
20260506175208 53 45 1.0 3.0 0.00 0.87 0.87 84 1006.3
20260506174253 53 45 5.0 7.0 0.00 0.87 0.87 84 1006.2
20260506173148 53 45 1.0 2.0 0.00 0.87 0.87 84 1006.0
20260506172233 54 45 4.0 6.0 0.00 0.87 0.87 84 1006.3
20260506171148 54 45 3.0 4.0 0.00 0.87 0.87 81 1006.1
20260506170233 54 45 0.0 3.0 0.00 0.87 0.87 81 1006.0
20260506165208 55 45 1.0 2.0 0.00 0.87 0.87 80 1006.1
20260506164212 55 45 0.0 2.0 0.00 0.87 0.87 80 1005.9
20260506163209 55 45 4.0 6.0 0.00 0.87 0.87 80 1005.8